[[{"header":{"parameterUnit":"m.s-1","parameterCategory":1,"la1":30.2991,"la2":30.254,"lo1":-89.0895,"lo2":-89.0444,"dx":0.0017,"dy":0.0017,"nx":28,"ny":28,"refTime":"2022-11-05T21:00:00:Z","depth":0,"parameterNumber":2,"parameterNumberName":"U-component_of_WINDS"},"data":[0,0,0,0,0,0,0,0,0,0,0,0,0,0,0,0,0,0,0,0,0,0,0,0,0,0,0,0,0,0,0,0,0,0,0,0,0,0,0,0,0,0,0,0,0,0,0,0,0,0,0,0,0,0,0,0,0,0,-2.605,-2.605,0,-2.5994,-2.5993,-2.5993,-2.5895,-2.5893,-2.5891,-2.5889,-2.5834,-2.5834,-2.5834,0,0,0,0,0,0,0,0,0,0,0,0,0,-2.608,-2.608,-2.6051,-2.605,-2.6049,-2.5994,-2.5993,-2.5992,-2.5895,-2.5893,-2.589,-2.5888,-2.5833,-2.5834,-2.5834,0,0,0,0,0,0,0,0,0,0,0,0,0,-2.605,-2.608,-2.6051,-2.5994,-2.5988,-2.5994,-2.5993,-2.5992,-2.5895,-2.5893,-2.589,-2.5887,-2.5833,-2.5834,-2.5834,-2.5892,0,0,-2.5835,-2.5835,0,0,0,0,0,0,0,0,-2.6052,-2.6049,-2.6003,-2.5998,-2.5991,-2.5948,-2.5983,-2.5959,-2.5896,-2.5931,-2.5889,-2.5886,-2.5874,-2.5871,-2.5866,-2.5889,-2.5887,-2.5835,-2.5835,-2.5836,-2.5836,0,0,0,0,0,0,0,-2.6054,-2.6051,-2.6028,-2.6002,-2.5995,-2.5973,-2.5966,-2.5978,-2.5919,-2.5927,-2.592,-2.5915,-2.587,-2.5866,-2.5864,-2.5886,-2.5835,-2.5835,-2.5836,-2.5836,-2.5958,-2.5961,0,0,0,0,0,0,-2.6064,-2.6053,-2.603,-2.6026,-2.6015,-2.5975,-2.5966,-2.5965,-2.5918,-2.5908,-2.5917,-2.591,-2.5867,-2.5864,-2.5862,-2.5929,-2.5836,-2.5836,-2.5836,-2.5955,-2.5959,-2.5962,0,0,0,0,0,0,-2.6065,-2.6062,-2.6032,-2.6038,-2.6032,-2.5977,-2.5976,-2.5965,-2.5961,-2.591,-2.59,-2.5923,-2.5865,-2.5862,-2.5886,-2.5926,-2.5836,-2.5836,-2.5952,-2.5956,-2.5961,-2.6063,0,0,0,0,0,0,-2.6066,-2.6063,-2.6083,-2.6039,-2.6032,-2.6056,-2.5979,-2.5966,-2.5962,-2.5952,-2.5914,-2.5904,-2.5862,-2.5886,-2.5886,-2.5925,-2.5837,-2.5948,-2.5954,-2.5959,-2.6056,-2.6071,-2.6083,0,0,0,0,0,-2.6067,-2.6113,-2.6084,-2.6082,-2.6055,-2.6058,-2.6054,-2.6004,-2.5965,-2.5986,-2.5954,-2.5906,-2.5922,-2.5889,-2.5889,-2.5928,-2.5945,-2.5952,-2.5959,-2.605,-2.6068,-2.6083,0,0,0,0,0,0,-2.6163,-2.6106,-2.6074,-2.6107,-2.6088,-2.6041,-2.6065,-2.6024,-2.6016,-2.6008,-2.5947,-2.5939,-2.5973,-2.5953,-2.5917,-2.5984,-2.5926,-2.5933,-2.5996,-2.6012,-2.6026,-2.603,-2.5837,0,0,0,0,0,-2.6188,-2.6194,-2.6144,-2.6178,-2.6171,-2.612,-2.6119,-2.6083,-2.6061,-2.6053,-2.6023,-2.6005,-2.6006,-2.6008,-2.6006,-2.6053,-2.6045,-2.608,-2.6094,-2.6105,-2.6112,-2.614,-2.6156,-2.5985,-2.5985,-2.5984,0,0,-2.624,-2.621,-2.6216,-2.6197,-2.6178,-2.6188,-2.6114,-2.6125,-2.6133,-2.6055,-2.6076,-2.6055,-2.6031,-2.6068,-2.6083,-2.6052,-2.6159,-2.6114,-2.6124,-2.6124,-2.6149,-2.6165,-2.618,-2.5989,-2.5988,-2.5988,0,0,-2.6339,-2.6315,-2.6343,-2.6327,-2.6299,-2.6266,-2.6274,-2.6234,-2.6217,-2.6238,-2.6181,-2.6189,-2.6192,-2.6178,-2.6172,-2.6272,-2.6229,-2.6274,-2.6345,-2.6373,-2.6386,-2.6398,-2.6437,-2.6451,-2.6281,-2.6281,-2.6281,0,-2.6406,-2.6416,-2.6362,-2.6379,-2.6374,-2.6305,-2.6335,-2.6321,-2.6296,-2.6295,-2.6261,-2.6266,-2.6245,-2.628,-2.6305,-2.6301,-2.631,-2.6277,-2.6388,-2.64,-2.641,-2.6446,-2.646,-2.6287,-2.6286,-2.6285,-2.6285,0,-2.6503,-2.6511,-2.6537,-2.6515,-2.6513,-2.6535,-2.6488,-2.6492,-2.6458,-2.643,-2.6455,-2.6427,-2.6421,-2.6427,-2.6392,-2.6459,-2.6441,-2.6399,-2.634,-2.6433,-2.6466,-2.6479,-2.6295,-2.6293,-2.6291,-2.629,0,0,-2.6657,-2.6608,-2.6618,-2.661,-2.6577,-2.6584,-2.6606,-2.66,-2.6606,-2.6592,-2.6611,-2.6618,-2.658,-2.6573,-2.6537,-2.6562,-2.6647,-2.6517,-2.6515,-2.6544,-2.6723,-2.6756,-2.6773,-2.6619,-2.6621,-2.6623,-2.6726,0,-2.675,-2.6783,-2.6738,-2.6782,-2.6792,-2.6729,-2.6749,-2.6733,-2.6708,-2.6714,-2.6687,-2.6694,-2.6642,-2.6638,-2.666,-2.6632,-2.6683,-2.6624,-2.6638,-2.6639,-2.6647,-2.6789,-2.6823,-2.6921,-2.6738,-2.674,-2.6742,0,-2.6861,-2.6855,-2.69,-2.6869,-2.6872,-2.689,-2.6883,-2.6889,-2.6872,-2.6852,-2.6848,-2.6806,-2.6828,-2.6772,-2.6804,-2.6765,-2.6769,-2.6757,-2.676,-2.6759,-2.6696,-2.6795,-2.6951,-2.6966,-2.6761,-2.676,-2.6758,0,-2.6973,-2.6975,-2.7003,-2.6997,-2.6961,-2.6976,-2.6962,-2.6942,-2.6943,-2.6938,-2.6939,-2.6937,-2.6936,-2.6937,-2.6897,-2.6859,-2.6936,-2.6874,-2.6923,-2.6924,-2.6941,-2.6941,-2.7102,-2.6942,-2.6942,-2.6942,-2.6941,0,-2.7081,-2.7113,-2.7053,-2.7071,-2.7105,-2.7055,-2.7091,-2.7071,-2.7054,-2.7069,-2.7015,-2.7031,-2.6977,-2.6988,-2.6957,-2.6991,-2.699,-2.6977,-2.6969,-2.6983,-2.6985,-2.6984,-2.6977,-2.6946,-2.6945,-2.6944,-2.6943,0,-2.7211,-2.7172,-2.7199,-2.7164,-2.7157,-2.7184,-2.7155,-2.7172,-2.7145,-2.7165,-2.7167,-2.7126,-2.7137,-2.7098,-2.7101,-2.7081,-2.7132,-2.7111,-2.7138,-2.7132,-2.7183,-2.718,-2.735,-2.7372,-2.7197,-2.7199,-2.7201,0,-2.7283,-2.7305,-2.7274,-2.728,-2.727,-2.728,-2.7281,-2.7234,-2.7238,-2.7223,-2.7243,-2.7249,-2.7251,-2.7272,-2.7244,-2.7248,-2.7228,-2.7288,-2.7228,-2.7243,-2.7232,-2.7232,-2.7235,-2.73,-2.7302,-2.7304,-2.7305,0,-2.7416,-2.7397,-2.74,-2.7399,-2.7403,-2.7399,-2.7392,-2.7401,-2.7351,-2.7359,-2.737,-2.7372,-2.7378,-2.7386,-2.7385,-2.7372,-2.7333,-2.7325,-2.7337,-2.7351,-2.7367,-2.7362,-2.7173,-2.7321,-2.7319,-2.7318,-2.7317,-2.7317,-2.752,-2.7539,-2.7521,-2.7529,-2.7519,-2.7515,-2.753,-2.7507,-2.7515,-2.7515,-2.7488,-2.7505,-2.7492,-2.7487,-2.7479,-2.7494,-2.7466,-2.7483,-2.7487,-2.7492,-2.7502,-2.7364,-2.7493,-2.7493,-2.7492,-2.7492,-2.7492,0,-2.7652,-2.7639,-2.7646,-2.764,-2.7647,-2.7608,-2.76,-2.7609,-2.7625,-2.7616,-2.762,-2.7635,-2.7644,-2.7619,-2.7625,-2.7642,-2.7624,-2.7645,-2.7644,-2.7643,-2.7525,-2.7515,-2.766,-2.766,-2.766,-2.766,-2.766,-2.766,-2.7722,-2.7753,-2.7733,-2.7761,-2.7748,-2.7764,-2.7763,-2.7761,-2.7754,-2.7773,-2.778,-2.7764,-2.775,-2.7755,-2.7763,-2.7756,-2.7762,-2.779,-2.7777,-2.7667,-2.7651,-2.7635,-2.7626,-2.7791,-2.7791,-2.7893,-2.7894,-2.7895]},{"header":{"parameterUnit":"m.s-1","parameterCategory":1,"la1":30.2991,"la2":30.254,"lo1":-89.0895,"lo2":-89.0444,"dx":0.0017,"dy":0.0017,"nx":28,"ny":28,"refTime":"2022-11-05T21:00:00:Z","depth":0,"parameterNumber":3,"parameterNumberName":"V-component_of_WINDS"},"data":[0,0,0,0,0,0,0,0,0,0,0,0,0,0,0,0,0,0,0,0,0,0,0,0,0,0,0,0,0,0,0,0,0,0,0,0,0,0,0,0,0,0,0,0,0,0,0,0,0,0,0,0,0,0,0,0,0,0,1.6082,1.6083,0,1.6097,1.6097,1.6097,1.6153,1.6154,1.6156,1.6157,1.6164,1.6163,1.6162,0,0,0,0,0,0,0,0,0,0,0,0,0,1.6098,1.6097,1.6082,1.6083,1.6083,1.6097,1.6097,1.6097,1.6153,1.6154,1.6156,1.6157,1.6164,1.6163,1.6162,0,0,0,0,0,0,0,0,0,0,0,0,0,1.6099,1.6097,1.6082,1.6112,1.6115,1.6097,1.6097,1.6098,1.6152,1.6154,1.6156,1.6158,1.6165,1.6163,1.6162,1.6113,0,0,1.6157,1.6156,0,0,0,0,0,0,0,0,1.6099,1.6099,1.6108,1.611,1.6113,1.6125,1.6105,1.6103,1.6152,1.6138,1.6157,1.6159,1.6149,1.6149,1.6147,1.6114,1.6114,1.6157,1.6156,1.6155,1.6155,0,0,0,0,0,0,0,1.6099,1.6098,1.6088,1.6108,1.6111,1.6124,1.6126,1.6105,1.6132,1.6139,1.6144,1.6145,1.6151,1.6148,1.6148,1.6114,1.6157,1.6156,1.6155,1.6154,1.6044,1.6042,0,0,0,0,0,0,1.6096,1.6098,1.6088,1.6089,1.6111,1.6122,1.6124,1.6119,1.6133,1.6137,1.6143,1.6147,1.615,1.6149,1.6148,1.6093,1.6155,1.6154,1.6153,1.6046,1.6043,1.6041,0,0,0,0,0,0,1.6096,1.6094,1.6087,1.6094,1.6095,1.6119,1.6113,1.6119,1.6116,1.6136,1.614,1.6136,1.6152,1.615,1.6123,1.6094,1.6153,1.6152,1.6048,1.6045,1.6042,1.5982,0,0,0,0,0,0,1.6096,1.6094,1.6076,1.6094,1.6094,1.6062,1.6112,1.6118,1.6115,1.612,1.613,1.6133,1.6153,1.6125,1.6121,1.6093,1.6151,1.6051,1.6047,1.6043,1.5986,1.5977,1.5969,0,0,0,0,0,1.6096,1.6057,1.6075,1.6074,1.6073,1.6061,1.606,1.6086,1.6112,1.6094,1.6107,1.6133,1.6099,1.6121,1.6118,1.6089,1.6053,1.6048,1.6044,1.599,1.5979,1.5969,0,0,0,0,0,0,1.6032,1.6059,1.608,1.6046,1.6051,1.607,1.6048,1.6073,1.6068,1.6073,1.6103,1.6105,1.6073,1.6079,1.6103,1.6044,1.608,1.6075,1.6041,1.603,1.6022,1.6019,1.6149,0,0,0,0,0,1.6014,1.6004,1.6028,1.5995,1.5997,1.6022,1.6017,1.6037,1.6043,1.6044,1.6055,1.6057,1.6047,1.6039,1.6031,1.5989,1.5991,1.5967,1.5959,1.5952,1.5945,1.5924,1.5913,1.6026,1.6026,1.6026,0,0,1.5976,1.599,1.5981,1.5982,1.5988,1.5975,1.6023,1.6006,1.5997,1.6041,1.6016,1.6024,1.6029,1.5994,1.5979,1.5998,1.5916,1.5946,1.594,1.5937,1.5918,1.5907,1.5898,1.6023,1.6024,1.6024,0,0,1.59,1.591,1.5884,1.5891,1.5901,1.5919,1.5913,1.593,1.5938,1.5915,1.5948,1.5936,1.5918,1.5921,1.5919,1.5849,1.5872,1.5846,1.5799,1.5778,1.5769,1.5761,1.5735,1.5725,1.584,1.584,1.584,0,1.585,1.5834,1.5867,1.585,1.5849,1.5893,1.5866,1.587,1.5876,1.5874,1.5896,1.5876,1.5882,1.5849,1.5833,1.5831,1.5823,1.5843,1.5768,1.576,1.5753,1.5729,1.5719,1.5837,1.5837,1.5837,1.5838,0,1.5772,1.576,1.5738,1.5746,1.5744,1.5722,1.575,1.5744,1.5765,1.5781,1.5756,1.5767,1.5762,1.5756,1.5775,1.5726,1.5737,1.5763,1.5799,1.5739,1.5716,1.5707,1.5832,1.5833,1.5834,1.5835,0,0,1.5651,1.5682,1.5673,1.5678,1.5695,1.5685,1.5666,1.5664,1.5658,1.5662,1.5645,1.5631,1.5656,1.5655,1.5675,1.5657,1.5601,1.5686,1.5686,1.5668,1.5546,1.5525,1.5513,1.5618,1.5617,1.5615,1.5545,0,1.5577,1.5547,1.5578,1.5541,1.553,1.5574,1.5557,1.5565,1.558,1.5572,1.5588,1.5578,1.5612,1.5612,1.5597,1.5611,1.5576,1.5617,1.56,1.56,1.5595,1.5502,1.5478,1.5411,1.5537,1.5535,1.5534,0,1.5486,1.549,1.5452,1.5474,1.5471,1.5455,1.5457,1.545,1.546,1.5472,1.5473,1.55,1.5482,1.5521,1.5495,1.5522,1.5518,1.5524,1.5522,1.5519,1.5561,1.5494,1.5391,1.538,1.5521,1.5522,1.5523,0,1.54,1.5395,1.5373,1.5376,1.5401,1.5389,1.5398,1.5411,1.5409,1.5411,1.541,1.5408,1.5407,1.5405,1.543,1.5457,1.5401,1.5442,1.5409,1.5408,1.5392,1.5392,1.5284,1.5393,1.5394,1.5394,1.5394,0,1.5313,1.5288,1.5334,1.532,1.5293,1.533,1.5302,1.5316,1.5328,1.5316,1.5354,1.5342,1.5378,1.5369,1.5389,1.5365,1.5364,1.5372,1.5377,1.5367,1.5366,1.5362,1.5366,1.5391,1.5392,1.5392,1.5393,0,1.521,1.5241,1.5219,1.5246,1.5253,1.5232,1.5254,1.5242,1.5262,1.5246,1.5245,1.5274,1.5266,1.5293,1.5289,1.5303,1.5266,1.528,1.5263,1.5266,1.5231,1.5233,1.5115,1.5101,1.5221,1.522,1.5219,0,1.5151,1.5133,1.516,1.5157,1.5165,1.5158,1.5158,1.5194,1.5192,1.5204,1.519,1.5186,1.5185,1.517,1.519,1.5187,1.52,1.5159,1.5199,1.519,1.5197,1.5197,1.5195,1.5149,1.5148,1.5146,1.5146,0,1.5042,1.506,1.5058,1.5063,1.5062,1.5067,1.5074,1.5068,1.5108,1.5103,1.5097,1.5097,1.5095,1.509,1.5093,1.5101,1.5129,1.5134,1.5126,1.5113,1.5104,1.5107,1.5237,1.5135,1.5136,1.5137,1.5137,1.5138,1.4958,1.4945,1.4963,1.4961,1.4971,1.4978,1.4968,1.4988,1.4985,1.4988,1.501,1.5,1.5013,1.502,1.5026,1.5018,1.5036,1.5025,1.5021,1.5017,1.5011,1.5108,1.5019,1.5019,1.5019,1.5019,1.502,0,1.485,1.4865,1.4863,1.4874,1.4872,1.4904,1.4915,1.491,1.4902,1.4913,1.4913,1.4907,1.4904,1.4925,1.4925,1.4914,1.4927,1.4912,1.4912,1.4913,1.4995,1.5001,1.4902,1.4902,1.4902,1.4902,1.4902,1.4902,1.4794,1.4773,1.4793,1.4778,1.4793,1.4786,1.4789,1.4795,1.4805,1.4797,1.4796,1.4812,1.4827,1.4829,1.4827,1.4834,1.4831,1.4811,1.4821,1.4896,1.4907,1.4918,1.4924,1.4811,1.4811,1.4741,1.474,1.474]}]]